Showing default

COSMOS 1694, 16142

Orbit data source: Space-Track

COSMOS 1694, 16142 is a payload satellite owned by GUKOS (CIS) in LEO that was launched on Wed, 09 Oct 1985 UTC via a TSIKLON-3 launch vehicle from the Plesetsk Missile And Space Complex (PKMTR). Payloads include a variety of satellites, spacecraft, and rockets equipped with specific instruments for various scientific and technological missions. These include communications satellites like Starlink; space stations such as the ISS; scientific satellites like the Hubble; Earth observation satellites from companies like Planet Labs, Umbra, and HawkEye 360; GPS; miniature CubeSats for education and research; and military/defense satellites.

Loading next visibility...
COSMOS 1694 details
Identifier
16142, 1985-094E
Orbit
LEO
Last TLE update17 hours ago
Origin
Flag of CISGUKOS (CIS)
ManufacturerNPO PM
MissionDefense Communications
Bus & MotorSTRELA-3, Unknown motor
Mass225 kg wet, 225 kg dry
Launch date (UTC)
1985-10-09 (39 years ago)
Launch vehicle
TSIKLON-3
Launch site
Plesetsk Missile And Space Complex (PKMTR)
Object type
Payload
Rocket body
Debris
Shape & HBRCyl, 1.6 m
Radar Cross Section1.257 m², Medium (>0.1 m² and < 1m²)

Expand to show TLE details & history

TLE from 17 hours ago
0 COSMOS 1694
1 16142U 85094E   24361.16682420  .00000008  00000-0 -15579-4 0  9995
2 16142  82.6083 244.9998 0010952 206.2121 322.2412 12.63682574808702
Epoch: 2024-12-26T04:00Z
Definitive object data (Epoch: 2024-12-26T04:00:13.61Z)
Latitude11.48289°
Longitude-91.70967°
Altitude1,403.024 km
Speed7.163 km/s
True Right ascension04h 13m 59s
True Declination11° 25' 18"
Sunlit
Object was in full shadow at TLE epoch
Visualization TLE readout
Latitude65.38107°
Longitude105.71576°
Altitude1,425.403 km
Speed7.151 km/s
Apparent Right ascension10h 39m 56s
Apparent Declination44° 08' 32"
Sunlit
Object is in daylight
Visualization observer readout
Local Sidereal Time19:56:51
Azimuth332.041° NNW
Elevation1.722°
Doppler factor1
Orbital elements
Apogee altitude1,413.623 km
Perigee altitude1,396.575 km
Semi-major axis7,783.236 km
Eccentricity0.0010952
Inclination82.6083°
RAAN244.9998°
Arg. of periapsis206.2121°
True anomaly322.16427°
Mean anomaly322.2412°
Eccentric anomaly322.20274°
Mean motion3.16084 °/min
BSTAR-0.000015579
Orbital period113.89 mins
Loading maneuver chart data...
Loading historical data...
Loading historical data...
Loading historical data...
Loading historical data...
Loading historical data...
Loading historical data...
Loading historical data...

COSMOS 1694 Visibility forecast

Observer location: undefined°, undefined

Span
Click to sort rows by Start time (UTC) header in descending order
Start Az.
Max El. time (UTC)
Max El. Az.
Max El.
End time (UTC)
End Az.
10 mins2024-12-27 02:32:00.588Z22.673° NE2024-12-27 02:37:00.588Z60.994° ENE18.082°2024-12-27 02:42:00.588Z101.534° ESE
15 mins2024-12-27 04:26:00.588Z351.037° N2024-12-27 04:33:00.588Z309.344° NW44.768°2024-12-27 04:41:00.588Z177.732° S
6 mins2024-12-27 06:24:00.588Z305.227° NW2024-12-27 06:27:00.588Z281.939° WNW14.382°2024-12-27 06:30:00.588Z259.025° W
8 mins2024-12-27 15:23:00.588Z104.252° ESE2024-12-27 15:26:00.588Z79.667° E17.228°2024-12-27 15:31:00.588Z41.401° NE
15 mins2024-12-27 17:13:00.588Z188.587° SSW2024-12-27 17:20:00.588Z297.849° NW44.852°2024-12-27 17:28:00.588Z6.468° NNE
7 mins2024-12-27 19:13:00.588Z273.346° WNW2024-12-27 19:16:00.588Z297.247° NW15.752°2024-12-27 19:20:00.588Z328.262° NNW
|